Regional Weather Roundup
Issued by NWS

Home | Current Version | Previous Version | Graphics & Text | Print | Product List | Glossary On
Versions: 1 2 3 4 5 6 7 8 9 10 11 12 13 14 15 16 17 18 19 20 21 22 23 24 25 26 27 28 29 30 31 32 33 34 35 36 37 38 39 40 41 42 43 44 45 46 47 48 49 50
000
ASUS45 KBOU 111010
RWRCO

WEATHER ROUNDUP FOR COLORADO
NATIONAL WEATHER SERVICE DENVER/BOULDER CO
400 AM MDT FRI JUL 11 2014

NOTE: "FAIR" INDICATES FEW OR NO CLOUDS BELOW 12000 FEET WITH NO
SIGNIFICANT WEATHER AND/OR OBSTRUCTIONS TO VISIBILITY.

COZ001>005-013-030-031-111100-
...NORTHWEST COLORADO...

CITY           SKY/WX    TMP DP  RH WIND       PRES   REMARKS
CRAIG          CLOUDY    59  55  87 SE8       30.21R
HAYDEN         CLOUDY    59  52  77 S6        30.23R
MEEKER         CLOUDY    61  54  77 E3        30.23R
MOUNT WERNER   NOT AVBL
STEAMBOAT SPGS MOCLDY    56  54  91 CALM      30.25R
WALDEN         MOCLDY    54  46  76 CALM      30.33R
$$

COZ006>008-011-111100-
...WEST CENTRAL VALLEYS...

CITY           SKY/WX    TMP DP  RH WIND       PRES   REMARKS
GRAND JUNCTION MOCLDY    68  58  70 S6        30.08R
MONTROSE       MOCLDY    65  57  75 SE8       30.18R
EAGLE          CLOUDY    61  59  94 SW9       30.28R
RIFLE          MOCLDY    64  58  80 CALM      30.18R
DELTA          MOCLDY    72  54  52 E5        30.12R
NUCLA          MOCLDY    66  50  55 E8        30.20R
$$

COZ017>023-064>068-111100-
...SOUTHWEST COLORADO...

CITY           SKY/WX    TMP DP  RH WIND       PRES   REMARKS
DURANGO        PTCLDY    60  53  77 VRB5      30.22F
CORTEZ         PTCLDY    66  54  65 E8        30.16F
PAGOSA SPRINGS PTCLDY    60  48  64 N6        30.31F
TELLURIDE      MOCLDY    61  46  59 CALM      30.39F
WOLF CREEK PAS NOT AVBL
$$

COZ009-010-012-014-032>034-037-058>063-111100-
...CENTRAL COLORADO...

CITY           SKY/WX    TMP DP  RH WIND       PRES   REMARKS
ASPEN          MOCLDY    56  52  86 SE6       30.31F
BUENA VISTA    PTCLDY    57  47  69 NW12G17   30.32R
COPPER MTN     CLOUDY    50  41  71 W16       30.62S
BERTHOUD PASS  CLOUDY    41  28  60 NW15      30.65R
COTTONWOOD PAS PTCLDY    59  43  55 W8        30.45R
GUNNISON       CLEAR     54  46  76 CALM      30.34R
KREMMLING      CLOUDY    59  52  77 E7        30.32S
LEADVILLE      MOCLDY    48  45  89 NE7       30.46R
MONARCH PASS   PTCLDY    50  37  62 W15       30.71R
SALIDA         PTCLDY    58  46  64 W10       30.36R
SUNLIGHT       PTCLDY    50  46  87 CALM      30.53S
WILKERSON PASS MOCLDY    52  37  58 S5        30.57S
$$

COZ069>075-111100-
...SAN LUIS VALLEY/SANGRE DE CRISTO MOUNTAINS...

CITY           SKY/WX    TMP DP  RH WIND       PRES   REMARKS
ALAMOSA        PTCLDY    56  50  80 E6        30.26R
LA VETA PASS   MOCLDY    54  45  71 SW13G25   30.44F
SAGUACHE       NOT AVBL
$$

COZ035-036-038>040-111100-
...NORTHERN COLORADO FRONT RANGE...

CITY           SKY/WX    TMP DP  RH WIND       PRES   REMARKS
DENVER INTL AP MOCLDY    66  56  70 W8        30.13R
DMNS CITY PARK   N/A     66  56  71 SE3       30.12S
AURORA         PTCLDY    64  56  75 W6        30.15R
FRONT RANGE AP NOT AVBL
ERIE MUNI ARPT PTCLDY    65  57  76 CALM      30.11S
BOULDER MUN AP PTCLDY    68  55  64 S3        30.12R
CENTENNIAL     PTCLDY    65  54  67 NW6       30.16R
BROOMFIELD     PTCLDY    68  55  64 CALM      30.15S
FORT COLLINS   PTCLDY    66  55  68 SE6       30.11R
LONGMONT       PTCLDY    66  58  75 CALM      30.12R
$$

COZ041-046-047-076>085-087-088-111100-
...PIKES PEAK/PALMER DIVIDE AND SOUTHERN FOOTHILLS...

CITY           SKY/WX    TMP DP  RH WIND       PRES   REMARKS
COLO. SPRINGS  MOCLDY    69  53  56 N23G38    30.12S
A. F. ACADEMY  PTCLDY    66  52  61 N16       30.18R
ELLICOTT       NOT AVBL
FALCON         PTCLDY    65  53  65 N17G25    30.18S
FORT CARSON    CLOUDY    72  50  46 NW12G23   30.07S
LIMON          MOCLDY    64  57  78 NW13      30.09R
MONUMENT HILL  PTCLDY    57  52  82 W8        30.23R
TRINIDAD       CLEAR     73  48  41 SW14      30.09R
$$

COZ042>045-048>051-090-091-111100-
...NORTHEAST COLORADO...

CITY           SKY/WX    TMP DP  RH WIND       PRES   REMARKS
GREELEY ARPT   NOT AVBL
AKRON          CLOUDY    65  62  90 NE15      30.03R
BURLINGTON     CLEAR     70  51  51 S15       29.97F
WRAY           CLOUDY    70  67  90 E8        29.97R
STERLING       CLOUDY    70  63  78 NE7       30.01S
HOLYOKE        CLOUDY    70  63  78 NE12      29.99R
FORT MORGAN    CLOUDY    67  57  70 NE10      30.05R
$$

COZ086-089-092>099-111100-
...SOUTHEAST COLORADO...

CITY           SKY/WX    TMP DP  RH WIND       PRES   REMARKS
PUEBLO         CLEAR     74  56  53 NE23G36   29.99S
LA JUNTA       CLEAR     79  50  36 S10       29.95S
LAMAR          CLEAR     76  48  37 S15       29.94S
SPRINGFIELD      N/A     71  48  43 S16G22    30.04S
$$


USA.gov is the U.S. government's official web portal to all federal, state and local government web resources and services.